Flag for France Weather past 2 weeks in Bordeaux, France

Now
45 °F

Clear.


Feels Like: 45 °F
Forecast: 45 / 71 °F
Wind: 2 mph from Southeast

Location: Bordeaux / Merignac

Current Time: Oct 23, 2014 at 4:49:41 AM

Latest Report: Oct 23, 2014 at 4:00 AM


Visibility: N/A

Pressure: 30.36 "Hg

Humidity: 93%

Dew point: 43 °F

Location of BordeauxLocation

Historic Weather in Bordeaux — Graph

°F

Bordeaux temperature yesterday

Maximum temperature yesterday: 63 °F (at 3:30 PM)
Minimum temperature yesterday: 45 °F (at 7:00 AM)
Average temperature yesterday: 54 °F

Past Weeks' High & Low Weather Summary

 TemperatureHumidityPressure
High82 °F (Oct 17, 5:00 PM)100% (Oct 9, 6:30 AM)30.48 "Hg (Oct 9, 6:30 AM)
Low45 °F (Oct 22, 7:00 AM)40% (Oct 17, 5:00 PM)29.56 "Hg (Oct 12, 7:30 AM)
Average64 °F82%29.93 "Hg
* Reported Oct 8 3:00 AM — Oct 23 3:30 AM, Bordeaux, Weather by CustomWeather, © 2014

Note: Actual official high and low records may vary slightly from our data, if they occured in-between our weather recording intervals... More about our weather records

Advertising

Bordeaux weather history for previous 24 hours

 ConditionsComfort  
Time TempWeatherWind HumidityBarometerVisibility
3:30 AM
Oct 23
45 °FClear.No wind93%30.39 "HgN/A
3:00 AM45 °FClear.No wind93%30.39 "HgN/A
2:30 AM45 °FClear.No wind93%30.39 "HgN/A
2:00 AM46 °FClear.2 mph93%30.39 "HgN/A
1:30 AM46 °FClear.No wind93%30.39 "HgN/A
1:00 AM46 °FClear.1 mph93%30.39 "HgN/A
12:30 AM46 °FClear.1 mph93%30.42 "HgN/A
12:00 AM48 °FClear.No wind87%30.42 "HgN/A
11:30 PM
Oct 22
48 °FPassing clouds.No wind87%30.42 "HgN/A
11:00 PM48 °FPassing clouds.No wind94%30.42 "HgN/A
10:30 PM50 °FPassing clouds.3 mph88%30.42 "HgN/A
10:00 PM50 °FPassing clouds.2 mph88%30.42 "HgN/A
9:30 PM52 °FPassing clouds.3 mph82%30.42 "HgN/A
9:00 PM54 °FClear.3 mph77%30.42 "HgN/A
8:30 PM54 °FPassing clouds.3 mph77%30.42 "HgN/A
8:00 PM55 °FClear.5 mph72%30.42 "HgN/A
7:30 PM57 °FClear.8 mph67%30.42 "HgN/A
7:00 PM57 °FPassing clouds.6 mph67%30.42 "HgN/A
6:30 PM59 °FPartly sunny.8 mph59%30.42 "HgN/A
6:00 PM61 °FPartly sunny.9 mph55%30.42 "HgN/A
5:30 PM63 °FPartly sunny.10 mph52%30.42 "HgN/A
5:00 PM63 °FPartly sunny.7 mph52%30.42 "HgN/A
4:30 PM63 °FPartly sunny.10 mph52%30.42 "HgN/A
4:00 PM63 °FBroken clouds.8 mph52%30.42 "HgN/A
3:30 PM63 °FScattered clouds.5 mph52%30.42 "HgN/A
3:00 PM61 °FPassing clouds.9 mph55%30.42 "HgN/A
2:30 PM61 °FPartly sunny.5 mph55%30.45 "HgN/A
2:00 PM61 °FPartly sunny.7 mph55%30.45 "HgN/A
1:30 PM61 °FPartly sunny.7 mph52%30.45 "HgN/A
1:00 PM59 °FPartly sunny.6 mph55%30.48 "HgN/A
12:30 PM59 °FOvercast.5 mph51%30.48 "HgN/A
12:00 PM57 °FPartly sunny.8 mph55%30.48 "HgN/A
11:30 AM57 °FPassing clouds.8 mph59%30.48 "HgN/A
11:00 AM55 °FPartly sunny.6 mph63%30.48 "HgN/A
10:30 AM54 °FPartly sunny.2 mph67%30.48 "HgN/A
10:00 AM52 °FClear.No wind77%30.48 "HgN/A
9:30 AM48 °FOvercast.No wind87%30.48 "HgN/A
9:00 AM45 °FOvercast.1 mph93%30.48 "HgN/A
8:30 AM45 °FPassing clouds.1 mph93%30.45 "HgN/A
8:00 AM45 °FPassing clouds.3 mph93%30.45 "HgN/A
7:30 AM45 °FClear.No wind93%30.45 "HgN/A
7:00 AM45 °FClear.No wind93%30.45 "HgN/A
6:30 AM46 °FClear.1 mph87%30.45 "HgN/A
6:00 AM46 °FClear.No wind87%30.45 "HgN/A
5:30 AM48 °FPassing clouds.No wind82%30.45 "HgN/A
5:00 AM50 °FOvercast.1 mph82%30.45 "HgN/A
4:30 AM48 °FOvercast.No wind87%30.45 "HgN/A
4:00 AM50 °FPassing clouds.No wind82%30.42 "HgN/A
Weather by CustomWeather, © 2014

See weather overviewHow to use our weather pages